Portada
METAR-TAF:

METAR-TAF

Aeroports :

Taunton Municipal Airport (King Field)

Taunton, Massachusetts, Estats Units d'Amèrica

latitud: 41-52-32N, longitud: 071-01-16W, altitud: 13 m

Observació

L'informe es va fer fa 20 minuts, a les 20:52 UTC
Vent 7 kt del Oest/Nord-Oest
Temperatura -1°C
Humitat 28%
Pressió 1026 hPa
Visibilitat: 16.1 km
Cel clar

METAR: KTAN 132052Z AUTO 30007KT 10SM CLR M01/M17 A3029 RMK AO2 SLP257 T10061172 53025

Hora: 16:12 (21:12 UTC)


TAF: manca

Observacions i pronòstics meteorològics de més de 4000 aeroports (METAR i TAF).

Les estacions disponibles són els punts grocs i vermells al mapa.

Posi el ratolí al punt desitjat per veure el nom de l'estació.

Feu clic per veure les observacions i els pronòstics meteorològics.

Per canviar el mapa: feu clic els botons verds amb una creu de color negre per apropar; al botó verd amb un guió per allunyar la imatge; o en les fletxes verdes per a mapes adjacents.


METAR-TAF: